www.pogodaiklimat.ru

Погода и климат >> Архив погоды >> Германия >> Бремен


АРХИВ ПОГОДЫ в Бремене

Время (UTC), дата Ветер
(напр.,м/с)
 
Видим.   Явления Облачность Т
(С)
Тd
(С)
f
(%)
Тe
(С)
Тes
(С)
Комфортность P
(гПа)
Po
(гПа)
Тmin
(С)
Tmax
(С)
R
(мм)
R24
(мм)
S
(см)
22 14.09 ЮЗ 1-1
{1}
45 км местами туман поземный 8/0
[Ci fib]
+9.4 +7.7 89 +9 +9 тепло 1027.7 1027.0
23 14.09 Ю 1-2
{3}
45 км 8/0
[Ci fib]
+8.7 +7.2 90 +8 +8 по сезону 1026.4 1025.7
00 15.09 ЮЗ 1 45 км местами туман поземный 8/0
[Ci fib]
+8.3 +7.0 92 +7 +7 прохладно 1025.7 1025.0
01 15.09 ЮЗ 1-2
{2}
45 км местами туман поземный 9/0
[Ci sp]
+7.5 +7.1 97 +6 +6 по сезону 1024.8 1024.1
02 15.09 ЮЗ 1-2
{2}
45 км местами туман поземный 9/0
[Ci sp]
+7.6 +6.9 95 +7 +7 по сезону 1024.1 1023.4
03 15.09 Ю 3 45 км 9/0
[Ci sp]
+7.6 +5.8 88 +5 +5 прохладно 1023.0 1022.3
04 15.09 Ю 1-2
{4}
45 км 9/0
[Ci sp]
+8.1 +6.1 87 +7 +7 тепло 1022.6 1021.9
05 15.09 Ю 2-3
{3}
45 км 9/0
[Ci sp]
+8.7 +5.9 83 +7 +7 по сезону 1022.0 1021.3
06 15.09 ЮЗ 4 35 км 9/0
[Ci sp]
+10.1 +6.7 79 +7 +8 по сезону 1021.6 1020.9 +7.3 +14.7
07 15.09 ЮЗ 5-7
{7}
40 км 9/0
[Ci sp]
+12.4 +7.5 72 +10 +11 по сезону 1021.4 1020.7
08 15.09 ЮЗ 5-7
{8}
40 км 9/0
[Ci sp]
+14.9 +7.8 62 +14 +15 тепло 1021.0 1020.4
09 15.09 ЮЗ 6 40 км 9/0
[Ci sp]
+16.8 +9.3 61 +16 +18 тепло 1020.3 1019.7
10 15.09 З 7-9
{11}
40 км 9/0
[Ci sp]
+19.1 +9.9 55 +19 +21 тепло 1020.5 1019.9
11 15.09 З 9 40 км 9/3 1500 м
[Sc Ci fib]
+20.8 +11.4 55 +22 +23 комфорт 1020.2 1019.6
12 15.09 З 8 30 км 9/9 1140 м
[Sc]
+22.3 +13.2 56 +25 +25 комфорт 1019.8 1019.2
13 15.09 З 8-10
{11}
40 км 9/9 870 м
[Sc]
+20.0 +13.5 66 +21 +21 комфорт 1019.7 1019.1
14 15.09 З 5-9
{11}
40 км 10/10 800 м
[Sc]
+19.4 +14.1 71 +21 +21 комфорт 1019.7 1019.1
15 15.09 СЗ 7 35 км 10/10 720 м
[Sc]
+18.4 +14.2 77 +18 +18 тепло 1019.7 1019.1
16 15.09 З 8 12 км дождь 10/10 600 м
[Sc]
+16.5 +14.0 85 +15 +15 тепло 1020.1 1019.5
17 15.09 СЗ 8 12 км дождь 10/10 240 м
[Sc]
+14.9 +13.7 93 +13 +13 по сезону 1020.5 1019.9
18 15.09 З 4 30 км в посл. час дождь 9/9 300 м
[Cu Sc]
+15.3 +13.2 87 +14 +14 по сезону 1020.4 1019.8 +10.2 +22.3 0.0
19 15.09 З 4 30 км 9/4 1440 м
[Sc Ac trans]
+14.8 +12.8 88 +14 +14 тепло 1020.5 1019.9
20 15.09 З 3 25 км 9/3 1500 м
[Sc Ac trans]
+13.9 +12.5 91 +13 +13 тепло 1020.6 1020.0
21 15.09 З 4 25 км 9/0
[Ac trans]
+13.7 +11.8 88 +12 +12 по сезону 1020.6 1020.0
22 15.09 З 3-4
{5}
20 км 9/0
[Ac trans]
+12.8 +11.1 89 +11 +11 тепло 1020.9 1020.3
23 15.09 З 3-4
{5}
20 км 9/0
[Ac trans]
+11.9 +10.6 92 +10 +10 по сезону 1021.1 1020.4
00 16.09 ЮЗ 2 20 км 9/0
[Ac trans Ci sp]
+11.9 +10.8 93 +11 +11 по сезону 1020.9 1020.2
01 16.09 ЮЗ 2 20 км 9/4 2000 м
[Sc Ac trans]
+11.3 +10.2 93 +10 +10 тепло 1020.7 1020.0
02 16.09 З 2 20 км 9/9 1500 м
[Sc]
+12.0 +10.7 92 +11 +11 тепло 1020.8 1020.1
03 16.09 З 2 20 км 9/4 1500 м
[Sc Ac trans]
+12.0 +10.9 93 +11 +11 по сезону 1020.5 1019.8
04 16.09 З 2 20 км 10/4 960 м
[Sc As op]
+12.2 +11.0 92 +11 +11 тепло 1020.0 1019.4
05 16.09 ЮЗ 2 18 км слаб. дождь 9/3 930 м
[Sc As trans]
+12.1 +11.3 95 +11 +11 тепло 1019.6 1019.0
06 16.09 ЮЗ 1 15 км в посл. час дождь 9/9 600 м
[Sc]
+12.1 +11.5 96 +12 +12 тепло 1019.5 1018.9 +11.2 +15.4 0.1
07 16.09 ЮЗ 2 15 км 9/9 750 м
[Cu Sc]
+12.9 +12.1 95 +12 +12 тепло 1019.6 1019.0
08 16.09 З 3 15 км слаб. дождь 8/4 180 м
[Cu hum Ac trans]
+13.5 +12.5 94 +12 +13 по сезону 1020.0 1019.4
09 16.09 З 3 13 км в посл. час дождь 9/9 300 м
[Cu hum]
+14.1 +11.9 87 +13 +14 по сезону 1020.1 1019.5 0.0
10 16.09 З 4 18 км в посл. час ливневой дождь 9/5 400 м
[Cu Sc Ci fib]
+15.1 +11.6 80 +14 +16 по сезону 1019.9 1019.3
11 16.09 ЮЗ 5 18 км 9/9 400 м
[Cu Sc]
+14.5 +11.5 82 +13 +13 прохладно 1019.8 1019.2
12 16.09 З 4 18 км слаб. ливневой дождь 9/9 570 м
[Cu Sc]
+14.6 +11.2 80 +13 +14 прохладно 1019.5 1018.9 0.1
13 16.09 СЗ 2 18 км в посл. час ливневой дождь 9/9 570 м
[Cu Sc]
+15.1 +11.3 78 +15 +16 тепло 1019.1 1018.5
14 16.09 СЗ 3 18 км в посл. час ливневой дождь 9/9 630 м
[Cu Sc]
+14.4 +11.7 84 +13 +14 по сезону 1019.1 1018.5
15 16.09 З 4 25 км {ливн. осадки} 9/9 630 м
[Cu Sc]
+15.6 +9.0 65 +15 +15 по сезону 1019.0 1018.4 0.3
16 16.09 З 4 25 км 8/4 630 м
[Cu Sc Ci sp]
+15.3 +9.1 66 +14 +15 тепло 1018.7 1018.1
17 16.09 З 3 30 км 9/6 630 м
[Cu Sc Ci fib]
+14.7 +10.0 73 +14 +14 по сезону 1018.7 1018.1
18 16.09 З 3 30 км {ливн. осадки} 9/6 1000 м
[Sc Ci fib]
+13.9 +9.8 76 +13 +13 по сезону 1018.8 1018.2 +12.1 +16.0
19 16.09 З 3 30 км 6/3 960 м
[Sc Ci fib]
+10.6 +7.9 83 +9 +9 по сезону 1019.1 1018.4
20 16.09 З 3-4
{4}
30 км 3/1 960 м
[Sc Ci fib]
+9.3 +7.6 89 +7 +7 прохладно 1019.1 1018.4
21 16.09 ЮЗ 1 30 км 3/1 1050 м
[Sc Ci fib]
+9.2 +7.9 92 +8 +8 прохладно 1019.1 1018.4
22 16.09 ЮЗ 2-2
{3}
30 км 6/5 1500 м
[Sc Ci fib]
+8.0 +7.1 94 +6 +6 по сезону 1018.8 1018.1
23 16.09 ЮЗ 2 30 км местами туман поземный 9/9 960 м
[Sc]
+8.6 +7.4 92 +7 +7 по сезону 1018.8 1018.1
00 17.09 З 4 30 км местами туман поземный 1/1 1000 м
[Sc Ci fib]
+8.5 +7.2 92 +5 +5 прохладно 1018.4 1017.7
01 17.09 З 3 30 км местами туман поземный 9/9 960 м
[Sc]
+9.7 +8.4 92 +7 +7 по сезону 1018.2 1017.5
02 17.09 З 4 30 км 5/5 840 м
[Sc Ac inh Ci fib]
+9.2 +7.8 91 +6 +6 по сезону 1017.9 1017.2
03 17.09 З 3 30 км 4/4 1500 м
[Sc]
+8.6 +7.4 92 +6 +6 прохладно 1017.7 1017.0
04 17.09 ЮЗ 5-6
{6}
30 км 9/9 1500 м
[Sc]
+10.1 +8.3 89 +7 +7 тепло 1017.1 1016.4
05 17.09 З 5-6
{6}
30 км 6/6 1500 м
[Sc]
+10.3 +8.3 87 +7 +7 по сезону 1016.8 1016.1
06 17.09 З 5 30 км 8/8 1500 м
[Sc]
+10.9 +8.1 83 +8 +8 по сезону 1016.9 1016.2 +7.6 +14.2
07 17.09 З 6 30 км 9/6 1350 м
[Sc Ac trans]
+11.7 +8.3 80 +9 +9 по сезону 1016.7 1016.1
08 17.09 З 6 30 км в посл. час морось 9/6 900 м
[Cu med, cong Ac trans]
+12.5 +8.6 77 +10 +10 по сезону 1016.6 1016.0
09 17.09 З 7 30 км в посл. час ливневой дождь {морось} 8/8 600 м
[Cu hum]
+12.1 +10.6 91 +9 +9 прохладно 1016.5 1015.9 0.8
10 17.09 З 8 30 км слаб. ливневой дождь 8/8 360 м
[Cu med, cong]
+12.8 +10.7 87 +10 +10 холодно 1016.6 1016.0
11 17.09 З 11-15
{15}
40 км в посл. час ливневой дождь 5/5 720 м
[Cu hum]
+15.1 +8.2 63 +13 +13 прохладно 1016.7 1016.1
12 17.09 З 11 40 км {ливн. осадки, морось} 4/4 960 м
[Cu hum Ci fib]
+16.2 +2.2 39 +14 +14 по сезону 1016.6 1016.0 0.0
13 17.09 СЗ 12 40 км 8/8 960 м
[Cb calv]
+14.7 +6.0 56 +12 +12 по сезону 1017.1 1016.5
14 17.09 З 10 40 км слаб. ливневой дождь 6/6 1080 м
[Cb calv]
+11.3 +8.6 83 +7 +7 холодно 1017.8 1017.1
15 17.09 З 8 40 км в посл. час ливневой дождь 4/3 1260 м
[Cu med, cong Ac trans]
+13.0 +8.4 74 +10 +10 прохладно 1017.8 1017.2 0.7
16 17.09 СЗ 10-14
{15}
40 км 4/4 1080 м
[Cu hum]
+13.6 +6.8 63 +11 +11 по сезону 1018.0 1017.4
17 17.09 З 7-11
{15}
35 км 3/3 1260 м
[Cu Sc Ci fib]
+12.2 +6.7 69 +9 +9 прохладно 1018.5 1017.9
18 17.09 З 6 35 км {ливн. осадки} 4/4 600 м
[Cu Sc Ci fib]
+11.7 +6.1 68 +9 +9 прохладно 1018.7 1018.0 +10.9 +17.2
19 17.09 З 6-9
{10}
40 км 1/1 1230 м
[Cu hum Ci fib]
+10.7 +6.4 75 +8 +8 по сезону 1019.3 1018.6
20 17.09 З 7-9
{9}
40 км 1/1 1200 м
[Cu hum]
+10.6 +6.8 77 +7 +7 прохладно 1019.8 1019.1
21 17.09 З 6 10 км слаб. ливневой дождь 9/9 930 м
[Cu Sc]
+11.0 +7.8 81 +8 +8 прохладно 1020.6 1019.9 0.0
22 17.09 З 4-5
{9}
35 км в посл. час ливневой дождь 1/1 900 м
[Cu hum]
+9.1 +6.8 86 +6 +6 по сезону 1021.0 1020.3
23 17.09 З 3-4
{6}
35 км в посл. час ливневой дождь 1/1 930 м
[Cu med, cong]
+9.1 +6.7 85 +7 +7 по сезону 1021.5 1020.8
00 18.09 З 5 15 км слаб. ливневой дождь 9/9 600 м
[Cu Sc]
+9.5 +8.0 90 +6 +6 прохладно 1021.9 1021.2 0.7
01 18.09 З 4-5
{7}
15 км слаб. ливневой дождь 9/9 900 м
[Cu Sc]
+9.0 +8.3 95 +6 +6 по сезону 1022.1 1021.4
02 18.09 З 3-4
{5}
35 км в посл. час ливневой дождь 3/1 1000 м
[Cu hum Ci fib]
+7.6 +6.9 95 +5 +5 по сезону 1022.3 1021.6
03 18.09 З 3 40 км в посл. час ливневой дождь 3/3 1500 м
[Sc]
+8.1 +6.9 92 +5 +5 прохладно 1022.7 1022.0 0.4
04 18.09 З 4-6
{6}
40 км 3/3 900 м
[Cu med, cong]
+8.7 +7.0 89 +6 +6 по сезону 1022.9 1022.2
05 18.09 З 3-3
{6}
30 км в посл. час ливневой дождь 4/3 1170 м
[Sc Ci fib]
+7.4 +5.9 90 +4 +4 по сезону 1023.3 1022.6
06 18.09 З 2 30 км {ливн. осадки} 3/1 600 м
[Cu Sc Ci fib]
+6.5 +5.6 94 +4 +4 прохладно 1023.7 1023.0 +6.3 +12.0 1
07 18.09 З 4 30 км 4/1 900 м
[Cu Sc Ci fib]
+10.6 +7.3 80 +8 +9 по сезону 1024.2 1023.5
08 18.09 З 5 30 км в посл. час дождь 9/8 840 м
[Cu Sc Ci fib]
+12.3 +7.1 71 +10 +10 по сезону 1024.8 1024.1
09 18.09 З 4 30 км в посл. час ливневой дождь 9/8 450 м
[Cu Sc Ci fib]
+13.0 +8.2 73 +11 +12 по сезону 1025.3 1024.6 0.0
10 18.09 СЗ 8 35 км 8/6 1000 м
[Cu Sc Ci fib]
+15.2 +6.7 57 +13 +14 по сезону 1025.0 1024.4
11 18.09 СЗ 8 35 км в посл. час ливневой дождь 6/5 1230 м
[Cu Sc Ci fib]
+15.3 +5.1 51 +13 +14 прохладно 1025.0 1024.4
12 18.09 З 7 30 км слаб. ливневой дождь 9/9 1140 м
[Cu Sc]
+13.0 +8.0 72 +10 +11 холодно 1025.5 1024.8 0.0
13 18.09 СЗ 8-11
{11}
35 км в посл. час ливневой дождь 5/5 1200 м
[Cu Sc Ci fib]
+15.6 +5.8 52 +14 +14 по сезону 1025.0 1024.4
14 18.09 СЗ 8 35 км 6/6 1200 м
[Cu Sc Ci fib]
+14.6 +5.7 55 +13 +13 по сезону 1025.4 1024.8
15 18.09 СЗ 6 40 км {ливн. осадки} 3/3 1230 м
[Cu Sc Ci fib]
+15.0 +4.1 48 +14 +14 по сезону 1025.2 1024.6 0.0
16 18.09 СЗ 7-10
{12}
40 км 4/4 1230 м
[Cu Sc Ci fib]
+14.8 +5.0 52 +13 +13 тепло 1025.3 1024.7
17 18.09 СЗ 5-7
{11}
40 км 3/3 1170 м
[Cu Sc Ci fib]
+13.3 +4.8 56 +12 +12 по сезону 1025.7 1025.0
18 18.09 СЗ 4 40 км {ливн. осадки} 4/3 1000 м
[Cu hum Ci fib]
+12.6 +5.4 61 +11 +11 по сезону 1026.0 1025.3 +6.6 +16.5
19 18.09 СЗ 3-4
{6}
30 км слаб. ливневой дождь 6/5 1050 м
[Cu med, cong Ci fib]
+11.1 +6.8 75 +9 +9 по сезону 1026.6 1025.9
20 18.09 З 3-3
{4}
40 км в посл. час ливневой дождь 3/3 1200 м
[Cu hum]
+7.6 +5.3 85 +5 +5 прохладно 1026.8 1026.1
21 18.09 З 2 40 км {ливн. осадки} 1/1 1500 м
[Sc]
+7.1 +5.3 88 +5 +5 холодно 1027.0 1026.3 0.1
22 18.09 З 3-4
{4}
40 км 5/5 1350 м
[Sc]
+8.3 +5.7 84 +6 +6 по сезону 1027.2 1026.5
23 18.09 З 1-2
{4}
35 км 8/6 1500 м
[Sc Ci fib]
+7.1 +5.3 88 +6 +6 по сезону 1027.5 1026.8
00 19.09 СЗ 3 40 км {ливн. осадки} 5/1 1500 м
[Sc Ci fib]
+6.7 +4.7 87 +4 +4 холодно 1027.5 1026.8 0.1
01 19.09 З 2-2
{3}
30 км 3/0
[Ci fib]
+5.8 +4.8 93 +3 +3 по сезону 1027.5 1026.8
02 19.09 З 2-2
{3}
30 км 4/0
[Ci fib]
+5.5 +4.9 96 +3 +3 прохладно 1027.5 1026.8
03 19.09 ЮЗ 2 30 км 5/4 1080 м
[Sc Ci fib]
+5.0 +4.6 97 +2 +2 холодно 1027.7 1027.0
04 19.09 Ю 2 30 км 4/1 1500 м
[Sc Ci fib]
+5.6 +5.1 97 +3 +3 по сезону 1027.8 1027.1
05 19.09 ЮЗ 2 30 км местами туман поземный 4/1 1200 м
[Cu Sc Ci fib]
+5.6 +4.6 93 +3 +3 прохладно 1028.2 1027.5
06 19.09 ЮЗ 2 30 км 4/1 1500 м
[Sc Ci fib]
+4.6 +3.8 95 +2 +2 холодно 1028.6 1027.9 +4.2 +12.6 0.1
07 19.09 ЮЗ 2 35 км 6/3 1500 м
[Sc Ci fib]
+7.7 +6.0 89 +6 +6 прохладно 1029.1 1028.4
08 19.09 З 2 35 км 6/4 1500 м
[Sc Ci fib]
+11.3 +6.8 74 +10 +12 по сезону 1029.6 1028.9
09 19.09 СЗ 5 35 км 8/3 1500 м
[Sc Ci fib]
+13.3 +6.5 63 +11 +13 по сезону 1030.0 1029.3
10 19.09 З 4 35 км 6/5 1170 м
[Cu med, cong Ci fib]
+14.9 +6.4 57 +14 +16 по сезону 1030.3 1029.6
11 19.09 З 6 40 км 8/5 1260 м
[Cu med, cong Ci fib]
+16.0 +5.5 50 +15 +16 по сезону 1030.1 1029.5
12 19.09 СЗ 6 40 км 6/4 1380 м
[Cu med, cong Ci fib]
+16.1 +3.9 44 +15 +17 по сезону 1030.2 1029.6
13 19.09 СЗ 5 40 км 6/4 1440 м
[Cu med, cong Ci fib]
+16.6 +4.3 44 +16 +18 тепло 1029.9 1029.3
14 19.09 СЗ 6 40 км 6/3 1500 м
[Cu hum Ci fib]
+15.7 +4.2 46 +14 +16 по сезону 1029.7 1029.1
15 19.09 СЗ 5 40 км 5/3 1500 м
[Cu hum Ci fib]
+16.2 +4.5 46 +15 +16 по сезону 1029.4 1028.8
16 19.09 СЗ 5 40 км 6/1 1380 м
[Cu hum Ci fib]
+15.2 +4.8 50 +14 +14 тепло 1029.5 1028.8
17 19.09 С 5 40 км 8/1 1200 м
[Cu Sc Ci fib]
+14.2 +5.0 54 +13 +13 по сезону 1029.8 1029.1
18 19.09 С 3 40 км 9/1 600 м
[Sc Ci fib]
+13.0 +6.1 63 +12 +12 по сезону 1030.1 1029.4 +4.1 +17.0
19 19.09 СЗ 2-3
{6}
40 км 8/0
[Ci fib]
+12.0 +6.4 69 +11 +11 тепло 1030.3 1029.6
20 19.09 З 2-2
{3}
40 км 6/0
[Ci fib]
+6.5 +4.7 88 +4 +4 холодно 1030.7 1030.0
21 19.09 З 2 40 км 6/0
[Ci fib]
+7.2 +6.2 93 +5 +5 холодно 1030.8 1030.1
22 19.09 З 1-2
{3}
40 км 6/0
[Ci fib]
+7.4 +6.4 93 +6 +6 по сезону 1030.9 1030.2
23 19.09 ЮЗ 2-2
{2}
40 км местами туман поземный 8/0
[Ci fib]
+5.4 +5.1 98 +3 +3 прохладно 1030.5 1029.8
00 20.09 ЮЗ 1 35 км местами туман поземный 8/0
[Ci fib]
+5.8 +5.4 97 +4 +4 холодно 1030.6 1029.9
01 20.09 ЮЗ 1-1
{2}
30 км местами туман поземный 6/0
[Ci fib]
+5.5 +5.4 99 +4 +4 по сезону 1030.4 1029.7
02 20.09 ЮЗ 1-2
{2}
30 км местами туман поземный 6/0
[Ci fib]
+5.3 +5.3 100 +4 +4 по сезону 1030.3 1029.6
03 20.09 ЮЗ 2 30 км местами туман поземный 8/0
[Ci fib]
+4.2 +4.1 99 +1 +1 очень
холодно
1030.0 1029.3
04 20.09 ЮЗ 1-1
{2}
1500 м туман местами 8/0
[Ci fib]
+5.0 +5.0 100 +3 +3 по сезону 1029.9 1029.2
05 20.09 ЮЗ 1 10 км в посл. час туман 6/0
[Ac trans Ci fib]
+4.8 +4.8 100 +3 +3 по сезону 1029.8 1029.1
06 20.09 ЮЗ 1 20 км местами туман поземный 8/3 600 м
[Sc Ac trans Ci fib]
+5.2 +5.1 99 +4 +4 прохладно 1029.8 1029.1 +3.9 +12.9
07 20.09 З 2 35 км 8/0
[Ac trans Ci fib]
+7.8 +6.5 91 +6 +7 по сезону 1030.0 1029.3
08 20.09 ЮЗ 3 35 км 8/3 1500 м
[Sc Ci fib]
+11.2 +7.5 78 +9 +11 по сезону 1030.4 1029.7
09 20.09 З 3 35 км 8/4 1500 м
[Sc Ci fib]
+14.0 +8.3 68 +13 +15 по сезону 1030.4 1029.7
10 20.09 З 4-6
{6}
40 км 9/9 870 м
[Sc]
+14.5 +7.6 63 +13 +14 по сезону 1030.0 1029.3
11 20.09 З 4 40 км 8/6 840 м
[Sc Ci fib]
+15.4 +8.4 63 +14 +16 по сезону 1029.6 1029.0
12 20.09 С 2 40 км 5/5 900 м
[Sc]
+15.8 +8.4 61 +16 +20 по сезону 1029.3 1028.7
13 20.09 СЗ 2-4
{5}
40 км 4/4 900 м
[Sc]
+17.3 +8.6 57 +18 +22 тепло 1028.8 1028.2
14 20.09 В 1-3
{5}
40 км 4/4 1020 м
[Cu Sc]
+17.7 +9.0 57 +19 +22 тепло 1028.1 1027.5
15 20.09 З 3 40 км 9/9 1020 м
[Cu Sc]
+17.1 +9.5 61 +17 +17 тепло 1027.7 1027.1
16 20.09 СЗ 3 40 км 9/9 960 м
[Cu Sc]
+16.8 +9.7 63 +17 +17 тепло 1027.3 1026.7
17 20.09 З 2-3
{4}
40 км 6/6 1110 м
[Sc]
+16.3 +10.0 66 +16 +16 тепло 1026.9 1026.3
18 20.09 СЗ 1 40 км 3/3 1000 м
[Sc]
+13.8 +9.7 76 +14 +14 по сезону 1027.0 1026.3 +5.2 +18.3
19 20.09 З 1-1
{1}
40 км 1/1 1110 м
[Sc]
+12.3 +9.9 85 +12 +12 тепло 1026.9 1026.2
20 20.09 штиль 0-1
{1}
40 км местами туман поземный ясно +10.5 +9.8 95 +10 +10 по сезону 1026.7 1026.0
21 20.09 штиль 0-1
{1}
30 км местами туман поземный ясно +9.7 +9.5 99 +9 +9 по сезону 1026.3 1025.6
22 20.09 штиль 0-1
{1}
800 м туман ясно +9.0 +9.0 100 +8 +8 тепло 1026.1 1025.4
23 20.09 Ю 1-2
{2}
600 м туман ясно +7.5 +7.4 99 +6 +6 по сезону 1025.6 1024.9
00 21.09 штиль 0 600 м туман ясно +7.2 +7.2 100 +6 +6 прохладно 1025.3 1024.6
01 21.09 Ю 1-1
{1}
500 м туман ясно +6.6 +6.6 100 +5 +5 по сезону 1025.0 1024.3
02 21.09 ЮВ 1-1
{2}
700 м туман ясно +6.1 +6.1 100 +5 +5 по сезону 1024.9 1024.2
03 21.09 Ю 1-1
{2}
500 м туман местами ясно +6.1 +6.1 100 +5 +5 прохладно 1024.4 1023.7
04 21.09 В 1-1
{1}
600 м туман ясно +5.5 +5.5 100 +4 +4 по сезону 1024.0 1023.3
05 21.09 В 1-2
{2}
2800 м туман местами 4/0
[Ci fib]
+6.1 +6.1 100 +5 +5 по сезону 1023.9 1023.2
06 21.09 В 1 12 км местами туман поземный 1/0
[Ci fib]
+6.8 +6.8 100 +6 +6 по сезону 1023.8 1023.1 +4.9 +13.8
07 21.09 ЮВ 1-2
{2}
18 км 1/0
[Ci fib]
+9.5 +7.6 88 +9 +10 по сезону 1023.7 1023.0
08 21.09 ЮВ 2-3
{3}
20 км 1/0
[Ci fib]
+12.7 +7.9 73 +12 +15 по сезону 1023.5 1022.8
09 21.09 ЮВ 2 25 км 1/0
[Ci fib]
+15.6 +8.8 64 +16 +20 тепло 1023.2 1022.6
10 21.09 В 2-4
{4}
30 км 1/0
[Ci fib]
+17.7 +8.6 55 +18 +25 тепло 1022.7 1022.1
11 21.09 В 3-5
{5}
35 км 1/0
[Ci fib]
+18.9 +7.0 46 +20 +26 тепло 1022.2 1021.6
12 21.09 В 3 35 км 1/0
[Ci fib]
+19.9 +6.7 42 +21 +27 комфорт 1021.6 1021.0
13 21.09 В 4-7
{7}
35 км 1/0
[Ci fib]
+20.9 +6.7 40 +22 +26 комфорт 1020.7 1020.1
14 21.09 ЮВ 3-5
{6}
40 км 1/0
[Ci fib]
+21.5 +6.9 39 +22 +26 комфорт 1019.9 1019.3
15 21.09 В 4 40 км 1/0
[Ci fib]
+21.9 +6.6 37 +23 +24 комфорт 1019.2 1018.6
17 21.09 В 3-4
{5}
45 км 3/0
[Ci fib]
+20.4 +7.8 44 +22 +22 комфорт 1018.1 1017.5
18 21.09 В 3 50 км 1/0
[Ci fib]
+18.2 +8.3 52 +19 +19 тепло 1017.6 1017.0 +6.8 +22.2
19 21.09 В 2-4
{4}
45 км ясно +17.1 +8.2 56 +17 +17 тепло 1017.6 1017.0
20 21.09 В 3-4
{4}
45 км ясно +15.5 +7.9 61 +15 +15 тепло 1017.1 1016.5

 

Местоположение метеостанции Бремен (Германия): широта 53.05 долгота 8.80 высота над уровнем моря 3 м.

В архиве по умолчанию представлена погода в Бремене за последнюю неделю. Архивные данные за месяц целиком и за предыдущие месяцы, начиная с января 2011 года, Вы можете получить, выбрав интересующий диапазон дат из раскрывающегося списка и нажав кнопку "Ввод!".


*Определитесь, кто Вы:
робот инопланетянин человек

Внимание! Время в таблицах - всемирное. Для получения местного времени необходимо прибавить поправку, которая равна 1 ч.

Смотрите также архив погоды в соседних городах и на ближайших метеорологических станциях:

Погода в Бремерхафене (Германия) (55 км)
Погода в Бремерфёрде (Германия) (56 км)
Погода во Фризойте-Альтенойте (Германия) (60 км)
Погода в Дипхольце (Германия) (60 км)
Погода в Солтау (Германия) (69 км)
Погода в Вунсторфе (Германия) (77 км)
Погода в Бергене (Германия) (80 км)
Погода в Нордхольце (Германия) (81 км)
Погода в Бюккебурге (Германия) (88 км)
Погода в Ганновере (Германия) (88 км)

Пояснения к столбцам:

Ветер - указаны скорость ветра в м/с - средняя за 10 мин, порывы в срок и между сроками (в фигурных скобках) и направление, откуда дует ветер: С - северный, СВ - северо-восточный, В - восточный, ЮВ - юго-восточный, Ю - южный, ЮЗ - юго-западный, З - западный, СЗ - северо-западный.
Видимость - горизонтальная дальность видимости в метрах или километрах. При видимости от 1 до 10 км при отсутствии осадков обычно наблюдается дымка, при ухудшении видимости до 1 км и менее - туман. В сухую погоду видимость может ухудшаться дымом, пылью или мглою.
Явления - указаны атмосферные явления, наблюдавшиеся в срок или в последний час перед сроком; фигурными скобками обозначены явления, наблюдавшиеся между сроками (за 1-3 часа до срока); квадратными скобками обозначены град или гололедные отложения с указанием их диаметра в мм.
Облачность - указаны через наклонную черту общая и нижняя облачность в баллах и высота нижней границы облаков в метрах; квадратными скобками обозначены формы облаков: Ci - перистые, Cs - перисто-слоистые, Cc - перисто-кучевые, Ac - высококучевые, As - высокослоистые, Sc - слоисто-кучевые, Ns - слоисто-дождевые, Cu - кучевые, Cb - кучево-дождевые. Подробнее классификацию облаков см. в Атласе облаков (PDF).
T - Температура воздуха - температура, измеренная на высоте 2 м над землей.
Td - Температура точки росы - температура, при понижении до которой содержащийся в воздухе водяной пар достигнет насыщения.
f - Относительная влажность воздуха - влажноcть воздуха, измеренная на высоте 2 м над землей.
Te - Эффективная температура - температура, которую ощущает одетый по сезону человек в тени. Характеристика душности погоды. При расчете учитывается влияние влажности воздуха и скорости ветра на теплоощущения человека.
Tes - Эффективная температура на солнце - температура, которую ощущает человек, с поправкой на солнечный нагрев. Характеристика знойности погоды. Зависит от высоты солнца над горизонтом, облачности и скорости ветра. Ночью, в пасмурную погоду, а также при ветре 12 м/с и более поправка равна нулю.
P - Атмосферное давление - приведенное к уровню моря атмосферное давление.
Po - Атмосферное давление - измеренное на уровне метеостанции атмосферное давление.
Tmin - Минимальная температура - минимум температуры воздуха на высоте 2 м над землей.
Tmax - Максимальная температура - максимум температуры воздуха на высоте 2 м над землей.
R - Количество осадков - Количество выпавших осадков за период времени, мм. При наведении курсора мыши на число - период времени, за который выпало указанное количество осадков.
R24 - Количество осадков - Количество выпавших осадков за 24 часа, мм.
S - Снежный покров - Высота снежного покрова, см. При наведении курсора мыши на число - состояние снежного покрова и степень покрытия местности в баллах.